Flag for Norway Weather past 2 weeks in Elverum, Norway

Now
46 °F

Cool.


Feels Like: 42 °F
Forecast: 33 / 49 °F
Wind: 7 mph from South

Location: Haugedalshogda

Current Time: Apr 25, 2015 at 10:08:58 PM

Latest Report: Apr 25, 2015 at 9:00 PM


Visibility: N/A

Pressure: 29.32 "Hg

Humidity: 91%

Dew point: 43 °F

Location of ElverumLocation

Historic Weather in Elverum — Graph

°F

Elverum temperature yesterday

Maximum temperature yesterday: 48 °F (at 3:00 PM)
Minimum temperature yesterday: 23 °F (at 3:00 AM)
Average temperature yesterday: 38 °F

Past Weeks' High & Low Weather Summary

 TemperatureHumidityPressure
High67 °F (Apr 20, 2:00 PM)96% (Apr 15, 3:00 AM)30.42 "Hg (Apr 15, 3:00 AM)
Low18 °F (Apr 14, 3:00 AM)15% (Apr 20, 2:00 PM)29.35 "Hg (Apr 25, 8:00 PM)
Average40 °F61%29.93 "Hg
* Reported Apr 10 8:00 PM — Apr 25 8:00 PM, Elverum, Weather by CustomWeather, © 2015

Note: Actual official high and low records may vary slightly from our data, if they occured in-between our weather recording intervals... More about our weather records

Advertising

Elverum weather history for previous 24 hours

 ConditionsComfort  
Time TempWeatherWind HumidityBarometerVisibility
8:00 PM
Sat, Apr 25
44 °FQuite cool.3 mph92%29.35 "HgN/A
7:00 PM44 °FQuite cool.5 mph92%29.38 "HgN/A
6:00 PM44 °FQuite cool.7 mph90%29.41 "HgN/A
5:00 PM43 °FQuite cool.5 mph91%29.41 "HgN/A
4:00 PM43 °FQuite cool.7 mph90%29.41 "HgN/A
3:00 PM42 °FQuite cool.3 mph91%29.44 "HgN/A
2:00 PM42 °FQuite cool.3 mph89%29.47 "HgN/A
1:00 PM41 °FQuite cool.3 mph88%29.47 "HgN/A
12:00 PM42 °FQuite cool.6 mph87%29.47 "HgN/A
11:00 AM41 °FQuite cool.5 mph91%29.50 "HgN/A
10:00 AM41 °FQuite cool.5 mph85%29.50 "HgN/A
9:00 AM42 °FQuite cool.5 mph84%29.53 "HgN/A
8:00 AM41 °FQuite cool.3 mph89%29.53 "HgN/A
7:00 AM39 °FChilly.2 mph91%29.55 "HgN/A
6:00 AM39 °FChilly.3 mph93%29.56 "HgN/A
5:00 AM37 °FChilly.No wind92%29.57 "HgN/A
4:00 AM36 °FChilly.1 mph92%29.59 "HgN/A
3:00 AM36 °FChilly.2 mph91%29.59 "HgN/A
1:00 AM37 °FChilly.2 mph87%29.61 "HgN/A
12:00 AM34 °FChilly.1 mph82%29.63 "HgN/A
10:00 PM
Fri, Apr 24
34 °FChilly.1 mph78%29.63 "HgN/A
Weather by CustomWeather, © 2015

See weather overviewHow to use our weather pages